This demonstration page uses our WeatherBlox Daily Observations layout. Learn more.

Left ArrowRight Arrow

39.12711, -84.51439

Hourly Observations for January 23, 2017

Temp ( °F °C ) Dew Point ( °F °C ) Humidity (%) Winds ( mph kmh ) Pressure ( in mb ) Visibility ( mi km ) Precip ( " mm )
12:53 am 00:53 Mostly Clear 56 13.3 49 9.4 77 77 NNE 10 17 29.40 996 10 16 0.00 0.00
1:53 am 01:53 Mostly Cloudy 56 13.3 49 9.4 77 77 NNE 12 19 29.40 996 10 16 0.00 0.00
2:46 am 02:46 Cloudy 55 13 48 9 77 77 N 10 17 29.41 996 10 16 0.00 0.00
2:53 am 02:53 Cloudy 56 13.3 49 9.4 77 77 NNE 8 13 29.40 996 10 16 0.00 0.00
3:38 am 03:38 Cloudy 55 13 48 9 77 77 N 9 15 29.41 996 10 16 0.00 0.00
3:53 am 03:53 Cloudy 55 12.8 49 9.4 80 80 N 9 15 29.41 996 10 16 0.00 0.00
4:53 am 04:53 Cloudy 53 11.7 48 8.9 83 83 N 10 17 29.42 996 10 16 0.00 0.00
5:37 am 05:37 Cloudy with Light Rain 51 10.6 49 9.4 92 92 N 13 20 29.44 997 6 10 0.01 0.25
5:42 am 05:42 Cloudy with Light Rain 52 11 48 9 88 88 N 16 26 29.44 997 6 10 0.00 0.00
5:53 am 05:53 Cloudy with Light Rain 50 10 49 9.4 96 96 N 14 22 29.43 997 6 10 0.01 0.25
6:53 am 06:53 Cloudy with Light Rain 49 9.4 47 8.3 93 93 N 12 19 29.46 998 6 10 0.02 0.51
7:53 am 07:53 Cloudy with Light Rain 47 8.3 46 7.8 97 97 N 13 20 29.49 999 8 13 0.02 0.51
8:53 am 08:53 Cloudy with Light Rain 46 7.8 44 6.7 93 93 NNW 14 22 29.52 1000 5 8 0.01 0.25
9:37 am 09:37 Cloudy 46 7.8 44 6.7 93 93 NNW 18 30 29.56 1001 7 11 0.00 0.03
9:53 am 09:53 Cloudy 46 7.8 44 6.7 93 93 N 20 31 29.54 1000 8 13 0.00 0.03
10:49 am 10:49 Cloudy with Light Rain 46 8 45 7 93 93 N 13 20 29.59 1002 3 4 0.00 0.03
10:53 am 10:53 Cloudy with Light Rain 46 7.8 45 7.2 96 96 N 15 24 29.55 1001 3 4 0.00 0.03
11:53 am 11:53 Cloudy with Mist and Fog 47 8.3 46 7.8 97 97 N 12 19 29.55 1001 6 10 0.00 0.03
12:53 pm 12:53 Cloudy with Light Rain 48 8.9 47 8.3 96 96 N 14 22 29.55 1001 3 5 0.00 0.03
1:53 pm 13:53 Cloudy 49 9.4 47 8.3 93 93 N 14 22 29.53 1000 7 11 0.00 0.03
2:53 pm 14:53 Cloudy with Mist and Fog 49 9.4 47 8.3 93 93 NNW 10 17 29.54 1000 5 8 0.00 0.00
3:53 pm 15:53 Cloudy with Mist and Fog 49 9.4 46 7.8 90 90 NNW 12 19 29.55 1001 6 10 0.00 0.00
4:53 pm 16:53 Cloudy with Light Rain 48 9 45 7 87 87 NNW 12 19 29.62 1003 10 16 0.00 0.00
5:44 pm 17:44 Cloudy with Light Rain 48 8.9 46 7.8 93 93 NNW 9 15 29.65 1004 10 16 0.00 0.03
5:53 pm 17:53 Cloudy with Light Rain 48 8.9 46 7.8 93 93 NNW 14 22 29.61 1003 10 16 0.00 0.03
6:53 pm 18:53 Cloudy with Light Rain 48 8.9 45 7.2 89 89 NNW 12 19 29.63 1003 10 16 0.00 0.03
7:53 pm 19:53 Cloudy with Light Rain 47 8.3 45 7.2 93 93 NNW 9 15 29.66 1004 6 10 0.01 0.25
8:01 pm 20:01 Cloudy with Light Rain 47 8.3 46 7.8 97 97 NW 5 7 29.68 1005 4 6 0.01 0.25
8:33 pm 20:33 Cloudy with Light Rain 47 8.3 45 7.2 93 93 N 10 17 29.71 1006 10 16 0.03 0.76
8:53 pm 20:53 Cloudy with Light Rain 46 7.8 45 7.2 96 96 NNW 6 9 29.67 1005 9 14 0.03 0.76
9:10 pm 21:10 Cloudy with Light Rain 46 8 45 7 93 93 NNW 9 15 29.71 1006 6 10 0.00 0.00
9:53 pm 21:53 Cloudy with Light Rain 46 7.8 45 7.2 96 96 NNW 7 11 29.68 1005 10 16 0.01 0.25
10:49 pm 22:49 Cloudy 45 7 45 7 100 100 NW 8 13 29.74 1007 10 16 0.00 0.03
10:53 pm 22:53 Cloudy 45 7.2 44 6.7 97 97 VRB 7 11 29.70 1006 10 16 0.00 0.03
11:53 pm 23:53 Cloudy 45 7.2 43 6.1 93 93 WNW 10 17 29.71 1006 10 16 0.00 0.00

Powered by AerisWeather